Regional Weather Roundup
Issued by NWS

Home | Current Version | Previous Version | Text Only | Print | Product List | Glossary On
Versions: 1 2 3 4 5 6 7 8 9 10 11 12 13 14 15 16 17 18 19 20 21 22 23 24 25 26 27 28 29 30 31 32 33 34 35 36 37 38 39 40 41 42 43 44 45 46 47 48 49 50
000
ASUS43 KLMK 131310
RWRKY
KENTUCKY REGIONAL WEATHER ROUNDUP
NATIONAL WEATHER SERVICE LOUISVILLE KY
800 AM EST SAT FEB 13 2016

NOTE "FAIR" INDICATES FEW OR NO CLOUDS BELOW 12,000 FEET
WITH NO SIGNIFICANT WEATHER AND/OR OBSTRUCTIONS TO VISIBILITY.

KYZ001>023-026-027-061>063-070>075-131400-
WESTERN AND SOUTH CENTRAL KENTUCKY

CITY           SKY/WX    TMP DP  RH WIND       PRES   REMARKS
PADUCAH        CLEAR     16   6  65 N12       30.61R WCI   3
HENDERSON      CLEAR     14   3  62 N6        30.61R WCI   5
OWENSBORO      CLEAR     14   5  67 N9        30.60R WCI   2
HOPKINSVILLE   CLEAR     17   6  62 N9        30.57R WCI   5
BOWLING GREEN  CLEAR     18   6  59 N8        30.55R WCI   8
GLASGOW        CLEAR     16   8  68 N9        30.52R WCI   5
$$

KYZ024-025-028>034-038-045-046-053-131400-
NORTH CENTRAL KENTUCKY

CITY           SKY/WX    TMP DP  RH WIND       PRES   REMARKS
LOUISVILLE/SDF PTCLDY    15   0  51 NW10      30.55R WCI   2
LOUISVILLE/LOU CLEAR     15  -1  49 N6        30.55R WCI   6
FORT KNOX      CLEAR     13   3  63 NW8       30.51R WCI   2
$$

KYZ035>037-039>044-047>052-055>060-089>105-131400-
NORTHEAST KENTUCKY

CITY           SKY/WX    TMP DP  RH WIND       PRES   REMARKS
LEXINGTON      LGT SNOW  14   7  73 N12       30.48R WCI   0
COVINGTON      CLOUDY    11   2  67 NW10      30.48R WCI  -3
FRANKFORT      CLEAR     13   1  59 NW8       30.49R WCI   2
$$

KYZ054-064>069-076>088-106>120-131400-
SOUTHEAST KENTUCKY

CITY           SKY/WX    TMP DP  RH WIND       PRES   REMARKS
JACKSON        MOCLDY    14   4  64 NW8       30.40R WCI   3
LONDON         CLOUDY    17   5  59 N8        30.43R WCI   7
SOMERSET       MOCLDY    18   5  57 N8G17     30.48R WCI   7
MIDDLESBORO    CLOUDY    20  12  70 N9        30.41R WCI  10
MONTICELLO     SUNNY     16   8  71 N14G20    30.48R WCI   2
$$




USA.gov is the U.S. government's official web portal to all federal, state and local government web resources and services.